Погода в Покровском

Россия / Ярославская область     57°39′35″N   38°33′34″E
темп.,
°C
ветер,
м/с
пор.,
м/с
влажн.,
%
обл.,
%
осадки,
мм/ч
давл.,
гПа
погр.,
м
27 января, чт
чт2700:00−21юз11100100 0.0 10179
03:00−22юз22100100 0.1 101715
06:00−18ююз23100100 0.0 101654
09:00−15ю2798100 0.1 1015128
12:00−9ююз41094100 0.0 1013374
15:00−8ю41091100 0.0 1012493
18:00−9ю4119198 0.0 1011434
21:00−11ю5139145 0.0 1009391
28 января, пт
пт2800:00−11ю51489100 0.0 1008435
03:00−10ю51389100 0.0 1007454
06:00−10ююв51292100 0.1 1005437
09:00−11ююв51392100 0.2 1005409
12:00−9ююв51292100 0.0 1005443
15:00−8ююв51293100 0.3 1004487
18:00−8ююв51293100 0.3 1004501
21:00−8юв41094100 0.7 1004443
29 января, сб
сб2900:00−9юв4994100 0.3 1004339
03:00−9юв3795100 0.5 1004280
06:00−9юв2696100 0.5 1003234
09:00−8юв2496100 1.0 1004167
12:00−6ю1294100 0.6 1004220
15:00−5з0194100 1.4 1004206
18:00−8з119888 0.2 100415
21:00−10з249873 0.3 100469
30 января, вс
вс3000:00−16юз2110099 0.0 10039
03:00−17ююз23100100 0.1 100241
06:00−16ю2610099 0.0 99995
09:00−13юв4119673 0.1 995227
12:00−8ююв51489100 0.0 992416
15:00−6юв61494100 0.2 989642
18:00−6юв61393100 0.6 988757
21:00−6юв61394100 1.2 987661
31 января, пн
пн3100:00−5юв51195100 1.0 987574
03:00−5юв41095100 1.7 987483
06:00−6юв3896100 0.6 987342
09:00−6юв379696 1.3 988275
12:00−4юв369499 0.1 988304
15:00−3вюв249397 0.2 989370
18:00−4вюв2593100 0.1 989260
21:00−5св2497100 0.1 98984